| time (UTC) | temp F | wind direction | speed MPH | gust MPH | rain 1hr in | rain 24hr in | rain mn in | humidity % | barometer mb |
| 20260507223028 | 59 | 313 | 2.0 | 12.0 | 0.00 | 0.15 | 0.11 | 34 | 1003.9 |
| 20260507221525 | 60 | 340 | 3.0 | 12.0 | 0.00 | 0.15 | 0.11 | 33 | 1003.9 |
| 20260507220019 | 60 | 312 | 4.0 | 13.0 | 0.00 | 0.15 | 0.11 | 33 | 1003.6 |
| 20260507214515 | 60 | 286 | 5.0 | 11.0 | 0.00 | 0.17 | 0.11 | 34 | 1003.7 |
| 20260507213012 | 60 | 313 | 5.0 | 13.0 | 0.00 | 0.17 | 0.11 | 33 | 1003.7 |
| 20260507211506 | 60 | 320 | 5.0 | 13.0 | 0.00 | 0.17 | 0.11 | 34 | 1003.7 |
| 20260507210002 | 59 | 333 | 5.0 | 13.0 | 0.00 | 0.17 | 0.11 | 34 | 1003.5 |
| 20260507204602 | 59 | 283 | 5.0 | 11.0 | 0.00 | 0.22 | 0.11 | 34 | 1003.5 |
| 20260507203055 | 60 | 325 | 3.0 | 9.0 | 0.00 | 0.22 | 0.11 | 34 | 1003.5 |
| 20260507201600 | 60 | 323 | 6.0 | 14.0 | 0.00 | 0.22 | 0.11 | 35 | 1003.5 |
| 20260507200050 | 61 | 311 | 5.0 | 15.0 | 0.00 | 0.22 | 0.11 | 34 | 1003.5 |
| 20260507194547 | 61 | 292 | 5.0 | 13.0 | 0.00 | 0.33 | 0.11 | 34 | 1003.5 |
| 20260507193037 | 61 | 333 | 8.0 | 18.0 | 0.00 | 0.33 | 0.11 | 33 | 1003.7 |
| 20260507191534 | 61 | 336 | 4.0 | 12.0 | 0.00 | 0.33 | 0.11 | 35 | 1003.8 |
| 20260507190030 | 61 | 294 | 6.0 | 16.0 | 0.00 | 0.33 | 0.11 | 35 | 1003.8 |
| 20260507184522 | 61 | 281 | 5.0 | 18.0 | 0.00 | 0.46 | 0.11 | 38 | 1003.9 |
| 20260507183030 | 59 | 341 | 5.0 | 16.0 | 0.00 | 0.46 | 0.11 | 47 | 1003.9 |
| 20260507181513 | 60 | 269 | 5.0 | 16.0 | 0.00 | 0.46 | 0.11 | 49 | 1003.8 |
| 20260507180014 | 61 | 227 | 6.0 | 19.0 | 0.00 | 0.46 | 0.11 | 48 | 1004.0 |
| 20260507174504 | 60 | 308 | 4.0 | 15.0 | 0.00 | 0.46 | 0.11 | 53 | 1004.1 |
| 20260507173101 | 61 | 272 | 5.0 | 12.0 | 0.00 | 0.46 | 0.11 | 46 | 1003.9 |
| 20260507171556 | 60 | 284 | 1.0 | 13.0 | 0.00 | 0.46 | 0.11 | 52 | 1004.1 |
| 20260507170055 | 61 | 250 | 4.0 | 14.0 | 0.00 | 0.46 | 0.11 | 52 | 1004.3 |
| 20260507164604 | 60 | 268 | 2.0 | 10.0 | 0.00 | 0.46 | 0.11 | 52 | 1004.4 |
| 20260507163043 | 61 | 214 | 2.0 | 11.0 | 0.00 | 0.46 | 0.11 | 51 | 1004.4 |
| 20260507161540 | 60 | 301 | 3.0 | 10.0 | 0.00 | 0.46 | 0.11 | 51 | 1004.6 |
| 20260507160036 | 59 | 257 | 5.0 | 10.0 | 0.00 | 0.46 | 0.11 | 52 | 1004.8 |
| 20260507154530 | 60 | 327 | 4.0 | 11.0 | 0.00 | 0.46 | 0.11 | 53 | 1005.0 |
| 20260507153025 | 60 | 302 | 2.0 | 10.0 | 0.00 | 0.46 | 0.11 | 57 | 1005.1 |
| 20260507151522 | 58 | 316 | 2.0 | 9.0 | 0.00 | 0.46 | 0.11 | 61 | 1005.1 |
| 20260507150016 | 58 | 296 | 1.0 | 5.0 | 0.00 | 0.46 | 0.11 | 59 | 1005.1 |
| 20260507144511 | 57 | 313 | 3.0 | 8.0 | 0.00 | 0.46 | 0.11 | 59 | 1005.3 |
| 20260507143013 | 57 | 325 | 3.0 | 10.0 | 0.00 | 0.46 | 0.11 | 60 | 1005.4 |
| 20260507141502 | 56 | 282 | 4.0 | 8.0 | 0.00 | 0.46 | 0.11 | 64 | 1005.7 |
| 20260507140059 | 56 | 295 | 6.0 | 12.0 | 0.00 | 0.46 | 0.11 | 64 | 1005.8 |
| 20260507134555 | 55 | 269 | 3.0 | 13.0 | 0.00 | 0.46 | 0.11 | 66 | 1005.9 |
| 20260507133050 | 55 | 317 | 4.0 | 10.0 | 0.00 | 0.46 | 0.11 | 67 | 1006.0 |
| 20260507131557 | 54 | 295 | 1.0 | 12.0 | 0.00 | 0.46 | 0.11 | 69 | 1006.0 |
| 20260507130044 | 53 | 279 | 3.0 | 8.0 | 0.00 | 0.46 | 0.11 | 70 | 1005.9 |
| 20260507124537 | 52 | 318 | 2.0 | 9.0 | 0.00 | 0.46 | 0.11 | 69 | 1006.0 |
| 20260507123032 | 52 | 264 | 1.0 | 10.0 | 0.00 | 0.46 | 0.11 | 70 | 1006.1 |
| 20260507121528 | 51 | 277 | 3.0 | 9.0 | 0.00 | 0.46 | 0.11 | 70 | 1006.2 |
| 20260507120023 | 51 | 288 | 3.0 | 7.0 | 0.00 | 0.46 | 0.11 | 65 | 1006.3 |
| 20260507114522 | 49 | 292 | 2.0 | 7.0 | 0.00 | 0.46 | 0.11 | 62 | 1006.3 |
| 20260507113014 | 48 | 333 | 0.0 | 3.0 | 0.00 | 0.46 | 0.11 | 35 | 1006.1 |
| 20260507111510 | 45 | 333 | 0.0 | 3.0 | 0.00 | 0.46 | 0.11 | 100 | 1006.4 |
| 20260507110006 | 45 | 350 | 0.0 | 3.0 | 0.00 | 0.46 | 0.11 | 100 | 1006.4 |
| 20260507104502 | 45 | 350 | 0.0 | 0.0 | 0.00 | 0.46 | 0.11 | 100 | 1006.6 |
| 20260507103058 | 44 | 350 | 0.0 | 0.0 | 0.00 | 0.46 | 0.11 | 100 | 1006.3 |
| 20260507101553 | 44 | 350 | 0.0 | 3.0 | 0.00 | 0.46 | 0.11 | 100 | 1006.1 |
| 20260507100056 | 44 | 350 | 0.0 | 0.0 | 0.00 | 0.46 | 0.11 | 100 | 1006.4 |
| 20260507094544 | 45 | 350 | 0.0 | 2.0 | 0.00 | 0.46 | 0.11 | 100 | 1006.0 |
| 20260507093039 | 45 | 350 | 0.0 | 0.0 | 0.00 | 0.46 | 0.11 | 100 | 1005.6 |
| 20260507091539 | 45 | 350 | 0.0 | 0.0 | 0.00 | 0.46 | 0.11 | 100 | 1005.5 |
| 20260507090031 | 46 | 350 | 0.0 | 2.0 | 0.00 | 0.46 | 0.11 | 100 | 1006.1 |
| 20260507084527 | 46 | 350 | 0.0 | 2.0 | 0.00 | 0.46 | 0.11 | 100 | 1006.0 |
| 20260507083022 | 46 | 350 | 0.0 | 2.0 | 0.00 | 0.46 | 0.11 | 100 | 1006.0 |
| 20260507081517 | 46 | 350 | 0.0 | 4.0 | 0.00 | 0.46 | 0.11 | 100 | 1005.9 |
| 20260507080012 | 47 | 355 | 1.0 | 6.0 | 0.00 | 0.46 | 0.11 | 100 | 1005.6 |
| 20260507074507 | 48 | 321 | 0.0 | 2.0 | 0.00 | 0.46 | 0.11 | 100 | 1005.6 |
| 20260507073006 | 48 | 321 | 1.0 | 4.0 | 0.00 | 0.46 | 0.11 | 100 | 1005.4 |
| 20260507071605 | 48 | 324 | 1.0 | 5.0 | 0.00 | 0.46 | 0.11 | 100 | 1005.5 |
| 20260507070104 | 48 | 324 | 0.0 | 2.0 | 0.00 | 0.46 | 0.11 | 100 | 1005.2 |
| 20260507064625 | 48 | 324 | 0.0 | 3.0 | 0.00 | 0.46 | 0.11 | 100 | 1005.0 |
| 20260507063051 | 48 | 324 | 0.0 | 6.0 | 0.00 | 0.46 | 0.11 | 100 | 1005.0 |
| 20260507061542 | 49 | 323 | 0.0 | 2.0 | 0.00 | 0.46 | 0.11 | 100 | 1004.7 |
| 20260507060049 | 49 | 323 | 0.0 | 4.0 | 0.00 | 0.46 | 0.11 | 100 | 1004.7 |
| 20260507054534 | 49 | 324 | 0.0 | 6.0 | 0.00 | 0.46 | 0.11 | 100 | 1004.6 |
| 20260507053030 | 49 | 327 | 2.0 | 9.0 | 0.00 | 0.46 | 0.11 | 100 | 1004.3 |
| 20260507051525 | 50 | 343 | 1.0 | 8.0 | 0.02 | 0.46 | 0.11 | 100 | 1004.4 |
| 20260507050034 | 50 | 331 | 2.0 | 9.0 | 0.10 | 0.46 | 0.11 | 100 | 1004.2 |
| 20260507044516 | 51 | 327 | 2.0 | 9.0 | 0.12 | 0.46 | 0.11 | 100 | 1004.4 |
| 20260507043011 | 52 | 300 | 4.0 | 11.0 | 0.13 | 0.46 | 0.11 | 100 | 1004.3 |
| 20260507041520 | 52 | 351 | 3.0 | 8.0 | 0.11 | 0.44 | 0.09 | 100 | 1004.3 |
| 20260507040002 | 53 | 340 | 3.0 | 11.0 | 0.02 | 0.35 | 0.00 | 100 | 1004.7 |
| 20260507034559 | 54 | 355 | 4.0 | 10.0 | 0.01 | 0.34 | 0.34 | 100 | 1003.8 |
| 20260507033054 | 55 | 320 | 3.0 | 7.0 | 0.00 | 0.33 | 0.33 | 100 | 1003.6 |
| 20260507031549 | 55 | 180 | 0.0 | 0.0 | 0.00 | 0.33 | 0.33 | 100 | 1003.4 |
| 20260507030046 | 55 | 180 | 0.0 | 2.0 | 0.00 | 0.33 | 0.33 | 100 | 1003.3 |
| 20260507024542 | 54 | 180 | 0.0 | 3.0 | 0.01 | 0.33 | 0.33 | 100 | 1003.3 |
| 20260507023041 | 54 | 180 | 0.0 | 2.0 | 0.01 | 0.33 | 0.33 | 100 | 1003.5 |
| 20260507021536 | 54 | 180 | 0.0 | 3.0 | 0.01 | 0.33 | 0.33 | 100 | 1003.5 |
| 20260507020032 | 55 | 180 | 0.0 | 5.0 | 0.02 | 0.33 | 0.33 | 100 | 1003.6 |
| 20260507014524 | 55 | 180 | 2.0 | 5.0 | 0.01 | 0.32 | 0.32 | 100 | 1003.6 |
| 20260507013019 | 55 | 198 | 0.0 | 3.0 | 0.01 | 0.32 | 0.32 | 100 | 1003.9 |
| 20260507011515 | 55 | 194 | 0.0 | 5.0 | 0.01 | 0.32 | 0.32 | 100 | 1003.8 |
| 20260507010010 | 55 | 207 | 2.0 | 7.0 | 0.00 | 0.31 | 0.31 | 100 | 1003.9 |
| 20260507004506 | 55 | 188 | 3.0 | 11.0 | 0.00 | 0.32 | 0.31 | 100 | 1004.0 |
| 20260507003001 | 55 | 180 | 2.0 | 7.0 | 0.00 | 0.32 | 0.31 | 100 | 1003.9 |
| 20260507001605 | 55 | 199 | 1.0 | 7.0 | 0.00 | 0.32 | 0.31 | 100 | 1004.0 |
| 20260507000053 | 56 | 179 | 0.0 | 8.0 | 0.00 | 0.32 | 0.31 | 100 | 1003.9 |
| 20260506234552 | 56 | 170 | 3.0 | 9.0 | 0.00 | 0.35 | 0.31 | 100 | 1003.9 |
| 20260506233044 | 56 | 155 | 2.0 | 10.0 | 0.00 | 0.35 | 0.31 | 100 | 1004.0 |
| 20260506231555 | 56 | 112 | 2.0 | 8.0 | 0.00 | 0.35 | 0.31 | 100 | 1004.0 |
| 20260506230045 | 56 | 183 | 2.0 | 7.0 | 0.00 | 0.35 | 0.31 | 100 | 1003.9 |
| 20260506224536 | 57 | 165 | 2.0 | 6.0 | 0.00 | 0.35 | 0.31 | 100 | 1004.2 |